[[{"header":{"parameterUnit":"m.s-1","parameterCategory":1,"la1":30.2991,"la2":30.254,"lo1":-89.0895,"lo2":-89.0444,"dy":0.0017,"dx":0.0017,"nx":28,"ny":28,"refTime":"2023-08-31T21:00:00:Z","depth":0,"parameterNumber":2,"parameterNumberName":"U-component_of_WINDS"},"data":[0,0,0,0,0,0,0,0,0,0,0,0,0,0,0,0,0,0,0,0,0,0,0,0,0,0,0,0,0,0,0,0,0,0,0,0,0,0,0,0,0,0,0,0,0,0,0,0,0,0,0,0,0,0,0,0,0,0,1.4735,1.4735,0,1.4737,1.4737,1.4737,1.469,1.4688,1.4687,1.4686,1.469,1.4691,1.4692,0,0,0,0,0,0,0,0,0,0,0,0,0,1.4687,1.4688,1.4735,1.4735,1.4735,1.4737,1.4737,1.4737,1.469,1.4688,1.4687,1.4685,1.4689,1.4691,1.4693,0,0,0,0,0,0,0,0,0,0,0,0,0,1.4701,1.4689,1.4735,1.4711,1.4709,1.4737,1.4737,1.4737,1.469,1.4688,1.4686,1.4685,1.4689,1.4691,1.4693,1.4744,0,0,1.4699,1.47,0,0,0,0,0,0,0,0,1.47,1.4703,1.4715,1.4713,1.4711,1.4711,1.4722,1.4739,1.4691,1.4698,1.4686,1.4684,1.4699,1.47,1.4704,1.4744,1.4744,1.4699,1.47,1.4701,1.4701,0,0,0,0,0,0,0,1.4699,1.4702,1.4736,1.4715,1.4712,1.47,1.47,1.4725,1.4709,1.4697,1.4693,1.4694,1.4697,1.4703,1.4704,1.4744,1.4699,1.4701,1.4702,1.4703,1.4821,1.4823,0,0,0,0,0,0,1.4701,1.4702,1.4736,1.4736,1.47,1.4703,1.4703,1.4713,1.4709,1.4706,1.4696,1.4692,1.47,1.4702,1.4704,1.476,1.4701,1.4703,1.4704,1.4819,1.4821,1.4824,0,0,0,0,0,0,1.4701,1.4705,1.4735,1.4718,1.4721,1.4706,1.4718,1.4714,1.4719,1.4708,1.4705,1.4705,1.4699,1.4701,1.4733,1.476,1.4704,1.4705,1.4817,1.482,1.4823,1.4874,0,0,0,0,0,0,1.4699,1.4705,1.4724,1.4719,1.4722,1.4765,1.472,1.4716,1.4723,1.4718,1.4715,1.4713,1.4697,1.473,1.4735,1.4761,1.4707,1.4814,1.4818,1.4822,1.487,1.4879,1.4886,0,0,0,0,0,1.4698,1.474,1.4726,1.473,1.4746,1.4766,1.4768,1.475,1.4725,1.4744,1.4736,1.4713,1.4757,1.4734,1.4739,1.4766,1.4812,1.4817,1.4821,1.4867,1.4877,1.4886,0,0,0,0,0,0,1.4751,1.4739,1.4723,1.4764,1.4767,1.4758,1.4782,1.4762,1.4771,1.4766,1.4743,1.4743,1.4777,1.4776,1.4751,1.4813,1.478,1.4786,1.4813,1.4823,1.4831,1.4829,1.4709,0,0,0,0,0,1.4767,1.4785,1.4774,1.4811,1.4813,1.4797,1.4806,1.4791,1.4792,1.4793,1.4788,1.479,1.4804,1.4814,1.4826,1.487,1.4867,1.4891,1.4899,1.4906,1.491,1.493,1.4939,1.4838,1.4838,1.4838,0,0,1.4801,1.4797,1.481,1.4822,1.4821,1.4839,1.4799,1.482,1.4832,1.4797,1.4825,1.4821,1.4822,1.4859,1.4876,1.4859,1.4938,1.4912,1.4917,1.4918,1.4935,1.4945,1.4954,1.4841,1.4841,1.484,0,0,1.4871,1.4871,1.49,1.4901,1.4901,1.489,1.4897,1.4891,1.4887,1.4915,1.4887,1.4902,1.4928,1.4928,1.4932,1.5,1.4978,1.5005,1.5046,1.5065,1.5073,1.508,1.5101,1.5109,1.501,1.501,1.501,0,1.4913,1.4939,1.4918,1.494,1.4945,1.4913,1.4941,1.4943,1.4947,1.4951,1.4932,1.4961,1.496,1.4995,1.5011,1.5017,1.5022,1.5004,1.5074,1.508,1.5086,1.5106,1.5115,1.5013,1.5013,1.5012,1.5012,0,1.4989,1.5007,1.5031,1.5034,1.5042,1.5068,1.505,1.506,1.5045,1.5035,1.5063,1.506,1.507,1.5078,1.5064,1.511,1.5099,1.5078,1.5043,1.5099,1.5117,1.5125,1.5017,1.5016,1.5015,1.5015,0,0,1.5092,1.5082,1.5091,1.509,1.5087,1.51,1.5124,1.5132,1.514,1.5144,1.5162,1.5183,1.5162,1.5166,1.5152,1.5169,1.5219,1.5145,1.5144,1.5156,1.5267,1.5281,1.529,1.5205,1.5207,1.5208,1.5265,0,1.5158,1.5196,1.5177,1.5217,1.5232,1.52,1.522,1.522,1.5212,1.5223,1.5214,1.5228,1.5201,1.5202,1.5219,1.521,1.524,1.5206,1.5219,1.522,1.5217,1.53,1.5316,1.537,1.5273,1.5274,1.5275,0,1.5239,1.5244,1.5285,1.5276,1.5281,1.53,1.5304,1.5316,1.5314,1.5307,1.5311,1.5291,1.5312,1.528,1.5308,1.5284,1.5289,1.5285,1.5287,1.5285,1.5249,1.5298,1.5387,1.5394,1.5286,1.5286,1.5285,0,1.5305,1.5323,1.5349,1.535,1.5341,1.5354,1.5351,1.5347,1.5353,1.5357,1.536,1.5368,1.5371,1.5377,1.536,1.5338,1.5388,1.5356,1.5381,1.5381,1.5391,1.539,1.548,1.5399,1.5399,1.5399,1.5399,0,1.5378,1.5404,1.5378,1.5394,1.5421,1.5399,1.5426,1.542,1.5417,1.543,1.5405,1.5418,1.5395,1.5406,1.5393,1.5416,1.5418,1.5412,1.5407,1.5412,1.5413,1.5413,1.5408,1.5401,1.5401,1.54,1.54,0,1.5456,1.5441,1.5466,1.5455,1.5452,1.5473,1.5463,1.5476,1.5466,1.5483,1.5485,1.5469,1.548,1.5464,1.5474,1.5465,1.5495,1.5487,1.5495,1.5491,1.5517,1.5513,1.5607,1.5617,1.5533,1.5534,1.5535,0,1.5503,1.5521,1.5511,1.5517,1.5515,1.5527,1.5531,1.551,1.5516,1.5514,1.5527,1.5536,1.5541,1.556,1.5549,1.5555,1.5545,1.5578,1.5546,1.5549,1.5542,1.5539,1.554,1.5583,1.5584,1.5585,1.5586,0,1.5585,1.5575,1.5583,1.5587,1.5592,1.5595,1.5596,1.5603,1.558,1.5588,1.5598,1.5602,1.561,1.5618,1.5622,1.5618,1.5598,1.5596,1.5602,1.5605,1.5608,1.5604,1.5509,1.5593,1.5593,1.5592,1.5592,1.5591,1.5646,1.566,1.5654,1.5662,1.566,1.566,1.5671,1.5662,1.5669,1.5674,1.5661,1.5674,1.567,1.5672,1.5671,1.568,1.5665,1.5674,1.5676,1.5678,1.568,1.5609,1.5681,1.568,1.568,1.568,1.568,0,1.5724,1.5718,1.5726,1.5726,1.5732,1.5713,1.5712,1.5718,1.5729,1.5727,1.5732,1.5742,1.5749,1.5738,1.5743,1.5752,1.5743,1.5754,1.5752,1.5751,1.5694,1.5687,1.5761,1.5761,1.5761,1.5761,1.5761,1.5761,1.5765,1.5786,1.5775,1.5794,1.5789,1.5799,1.58,1.58,1.5798,1.581,1.5815,1.5808,1.5801,1.5805,1.5811,1.5807,1.5809,1.5823,1.5816,1.5763,1.5755,1.5747,1.574,1.5824,1.5824,1.5871,1.5871,1.5872]},{"header":{"parameterUnit":"m.s-1","parameterCategory":1,"la1":30.2991,"la2":30.254,"lo1":-89.0895,"lo2":-89.0444,"dy":0.0017,"dx":0.0017,"nx":28,"ny":28,"refTime":"2023-08-31T21:00:00:Z","depth":0,"parameterNumber":3,"parameterNumberName":"V-component_of_WINDS"},"data":[0,0,0,0,0,0,0,0,0,0,0,0,0,0,0,0,0,0,0,0,0,0,0,0,0,0,0,0,0,0,0,0,0,0,0,0,0,0,0,0,0,0,0,0,0,0,0,0,0,0,0,0,0,0,0,0,0,0,1.6723,1.6724,0,1.676,1.6761,1.6761,1.6733,1.6732,1.6731,1.673,1.6765,1.6767,1.6769,0,0,0,0,0,0,0,0,0,0,0,0,0,1.6625,1.6627,1.6723,1.6724,1.6724,1.676,1.6761,1.6761,1.6734,1.6732,1.6731,1.6729,1.6765,1.6767,1.6769,0,0,0,0,0,0,0,0,0,0,0,0,0,1.6665,1.6627,1.6723,1.6715,1.6715,1.676,1.6761,1.6761,1.6734,1.6732,1.673,1.6729,1.6764,1.6767,1.677,1.6825,0,0,1.6779,1.6781,0,0,0,0,0,0,0,0,1.6663,1.6669,1.6716,1.6716,1.6715,1.674,1.6739,1.6783,1.6734,1.6726,1.673,1.6728,1.6758,1.6762,1.6773,1.6827,1.6828,1.6779,1.6781,1.6783,1.6784,0,0,0,0,0,0,0,1.666,1.6667,1.6738,1.6716,1.6716,1.6708,1.6712,1.6747,1.6752,1.6727,1.6725,1.673,1.6758,1.677,1.6773,1.6829,1.6779,1.6782,1.6784,1.6785,1.6927,1.6929,0,0,0,0,0,0,1.6659,1.6665,1.6737,1.6739,1.6684,1.6711,1.6715,1.6734,1.6752,1.6752,1.6732,1.6729,1.6765,1.677,1.6774,1.6838,1.6783,1.6786,1.6787,1.6925,1.6927,1.6929,0,0,0,0,0,0,1.6657,1.6665,1.6735,1.6701,1.671,1.6715,1.6736,1.6736,1.6748,1.6755,1.6755,1.6743,1.6764,1.677,1.6812,1.6839,1.6787,1.679,1.6923,1.6926,1.6928,1.6967,0,0,0,0,0,0,1.6654,1.6665,1.6687,1.6702,1.6712,1.6774,1.6738,1.6738,1.6753,1.675,1.6766,1.6767,1.6763,1.6808,1.6815,1.6842,1.6792,1.692,1.6924,1.6927,1.6963,1.6971,1.6977,0,0,0,0,0,1.6651,1.6696,1.6688,1.6697,1.674,1.6775,1.6781,1.6776,1.6756,1.6777,1.6781,1.6766,1.6835,1.6812,1.682,1.6849,1.6919,1.6923,1.6927,1.696,1.6969,1.6977,0,0,0,0,0,0,1.6684,1.6698,1.6689,1.6742,1.6758,1.6771,1.6798,1.6787,1.6808,1.6804,1.6797,1.68,1.6844,1.6851,1.6825,1.6902,1.6873,1.6879,1.6896,1.6904,1.6911,1.6908,1.6795,0,0,0,0,0,1.6697,1.6726,1.6737,1.6782,1.6791,1.6793,1.6808,1.6803,1.6819,1.6825,1.6833,1.6848,1.6873,1.6889,1.6913,1.6965,1.6966,1.6988,1.6995,1.7001,1.7005,1.7031,1.704,1.6943,1.6943,1.6943,0,0,1.6725,1.6737,1.6756,1.6789,1.6801,1.6829,1.6799,1.6831,1.6851,1.683,1.687,1.6876,1.6892,1.6939,1.696,1.6946,1.7033,1.7006,1.7011,1.7012,1.7036,1.7045,1.7054,1.6946,1.6946,1.6945,0,0,1.679,1.6803,1.6841,1.6853,1.6871,1.6872,1.6881,1.6896,1.6899,1.6939,1.6923,1.6947,1.699,1.7002,1.7013,1.7081,1.7067,1.7089,1.7124,1.7149,1.7157,1.7164,1.7186,1.7194,1.7094,1.7094,1.7094,0,1.6823,1.6866,1.6862,1.6894,1.6908,1.6891,1.6928,1.694,1.6964,1.6974,1.6958,1.7011,1.7021,1.7068,1.7085,1.7096,1.7104,1.7086,1.7157,1.7163,1.7169,1.719,1.7199,1.7096,1.7096,1.7096,1.7096,0,1.6904,1.6934,1.6962,1.6986,1.7004,1.7038,1.7037,1.7056,1.7049,1.7051,1.7091,1.7102,1.7126,1.7137,1.7131,1.7184,1.7174,1.7158,1.7129,1.7181,1.72,1.7208,1.71,1.7099,1.7098,1.7098,0,0,1.6991,1.7011,1.7021,1.7031,1.7049,1.7072,1.7105,1.7129,1.7143,1.716,1.7186,1.7223,1.7207,1.722,1.7215,1.7237,1.7287,1.7218,1.7218,1.7229,1.7343,1.7354,1.7364,1.7279,1.728,1.7282,1.7341,0,1.7055,1.7114,1.711,1.7164,1.719,1.7173,1.7202,1.7215,1.7217,1.7239,1.7242,1.7267,1.7245,1.7253,1.7274,1.7277,1.731,1.7273,1.7301,1.7302,1.7296,1.7374,1.7387,1.7443,1.7349,1.735,1.7351,0,1.7138,1.7158,1.7215,1.7227,1.7238,1.7264,1.7284,1.7306,1.732,1.732,1.7334,1.7324,1.7356,1.7327,1.7369,1.7344,1.7355,1.7358,1.736,1.7361,1.7329,1.7376,1.7461,1.7468,1.7364,1.7363,1.7362,0,1.7193,1.7235,1.7273,1.7282,1.7298,1.7316,1.7323,1.7335,1.7349,1.7367,1.7375,1.7397,1.7408,1.7424,1.742,1.74,1.7462,1.7433,1.7461,1.7461,1.7474,1.7473,1.756,1.7484,1.7484,1.7484,1.7484,0,1.7265,1.73,1.7298,1.7321,1.7359,1.7354,1.7391,1.7396,1.7406,1.7429,1.7417,1.7438,1.7432,1.7453,1.745,1.7484,1.749,1.749,1.7488,1.749,1.749,1.7496,1.7491,1.7486,1.7486,1.7485,1.7485,0,1.7332,1.7333,1.7373,1.7385,1.7388,1.7415,1.7424,1.7445,1.7447,1.7476,1.7482,1.7484,1.7508,1.7506,1.7533,1.753,1.7572,1.7567,1.7567,1.7565,1.7593,1.7589,1.7685,1.7697,1.7615,1.7616,1.7617,0,1.7377,1.7403,1.7417,1.7432,1.744,1.7464,1.7478,1.7473,1.7488,1.7505,1.7524,1.7546,1.7564,1.7603,1.7606,1.7626,1.762,1.7652,1.7622,1.7623,1.7618,1.7615,1.7617,1.7657,1.7658,1.7659,1.7659,0,1.7455,1.7454,1.7475,1.7496,1.7513,1.7529,1.7544,1.7556,1.7552,1.757,1.7594,1.7608,1.7635,1.7657,1.7676,1.7681,1.7669,1.7669,1.7676,1.7677,1.7675,1.7675,1.7581,1.7666,1.7666,1.7665,1.7665,1.7664,1.7511,1.7533,1.7545,1.7569,1.7579,1.7593,1.7613,1.7616,1.7637,1.7659,1.7654,1.7681,1.7692,1.7716,1.7724,1.7744,1.7732,1.7743,1.7745,1.7748,1.775,1.7674,1.7748,1.7747,1.7747,1.7747,1.7747,0,1.7587,1.7594,1.7616,1.7636,1.7654,1.7642,1.7657,1.7672,1.7696,1.7708,1.7726,1.7753,1.7774,1.7778,1.7797,1.7812,1.7807,1.7818,1.7815,1.7817,1.776,1.7751,1.7821,1.7821,1.7821,1.7821,1.7821,1.7821,1.7628,1.7664,1.7663,1.7703,1.771,1.7736,1.7745,1.7757,1.7766,1.7797,1.7814,1.7817,1.7825,1.7845,1.7863,1.7864,1.7871,1.7883,1.7881,1.7828,1.7821,1.7814,1.7805,1.7885,1.7885,1.7936,1.7936,1.7937]}]]